|   |  | Asteroid 2014 MA18
					
					
					
					
						
					
					
						
							(Preview) 
						
							
								Orbital elements:
2014 MA18                                                Earth MOID = 0.0001 AU
Epoch 2014 May 23.0 TT = JDT 2456800.5                  MPC
M  75.37997              (2000.0)            P               Q
n   1.20699425     Peri.   43.61453     -0.64725300     -0.75467430
a   0.8736401      Node    87.02114     +0.66655191     -0.62867322
e   0.3021627      Incl.    6.17262     +0.36982712     -0.18771437
P   0.82           H   25.5           G   0.1... | Blobrana | 0 |  |  | 
		
			
			
				
				
					|   |  | Asteroid (138947) 2001 BA40
					
					
					
					
						
					
					
						
							(Preview) 
						
							
								The 480 - 1100 metre wide asteroid 2001 BA40 will make a close pass (70.7 lunar distances, 0.1817 AU), travelling at 10.25 km/second, to the Earth-Moon system on the 26th June 2014 @ 06:01 UT ±00:01.  See more The Lunar Distance (LD), the distance between Earth and the Moon, equals 384,401 km, (or 0.00...  | Blobrana | 0 |  |  | 
		
			
			
				
				
					|   |  | Asteroid 2014 MY
					
					
					
					
						
					
					
						
							(Preview) 
						
							
								The 33 - 75 metre wide asteroid 2014 MY will make a close pass (26.1 lunar distances, 0.0672 AU), travelling at 9.57 km/second, to the Earth-Moon system on the 26th June 2014 @ 11:19 UT ±00:04.  See more The Lunar Distance (LD), the distance between Earth and the Moon, equals 384,401 km, (or 0.00256 AU)... | Blobrana | 0 |  |  | 
		
			
			
				
				
					|   |  | Asteroid 2014 KN4
					
					
					
					
						
					
					
						
							(Preview) 
						
							
								The 35 - 78 metre wide asteroid 2014 KN4 will make a close pass (42.2 lunar distances, 0.1084 AU), travelling at 5.25 km/second, to the Earth-Moon system on the 26th June 2014 @ 12:44 UT ±00:04.  See more The Lunar Distance (LD), the distance between Earth and the Moon, equals 384,401 km, (or 0.00256 AU... | Blobrana | 0 |  |  | 
		
			
			
				
				
					|   |  | Asteroid 2014 MH6
					
					
					
					
						
					
					
						
							(Preview) 
						
							
								Orbital elements:
2014 MH6                                                 Earth MOID = 0.0010 AU
Epoch 2014 May 23.0 TT = JDT 2456800.5                  MPC
M  20.67809              (2000.0)            P               Q
n   0.72829100     Peri.  257.62980     -0.96970383     -0.20297667
a   1.2234872      Node   270.54276     +0.24094447     -0.88640288
e   0.5137141      Incl.    7.81233     -0.04025230     -0.41604134
P   1.35           H   27.0           G   0.... | Blobrana | 0 |  |  | 
		
			
			
				
				
					|   |   | Asteroid 2014 LJ21
					
					
					
					
						
					
					
						
							(Preview) 
						
							
								Orbital elements:
2014 LJ21                                           PHA, Earth MOID = 0.0141 AU
Epoch 2014 May 23.0 TT = JDT 2456800.5                  MPC
M   8.97110              (2000.0)            P               Q
n   0.20934807     Peri.  301.81249     +0.29793577     -0.89693343
a   2.8090324      Node   127.23891     +0.95399777     +0.26775661
e   0.8939133      Incl.   24.22924     +0.03350425     +0.35187615
P   4.71           H   15... | Blobrana | 1 |  |  | 
		
			
			
				
				
					|   |  | Asteroid 2013 NV
					
					
					
					
						
					
					
						
							(Preview) 
						
							
								Orbital elements:
2013 NV                                             PHA, Earth MOID = 0.0392 AU
Epoch 2014 May 23.0 TT = JDT 2456800.5                  MPC
M  50.74941              (2000.0)            P               Q
n   1.05019298     Peri.  227.79311     -0.70883435     -0.51035783
a   0.9585688      Node   275.63366     +0.69937567     -0.59833798
e   0.5110376      Incl.   29.29333     -0.09180160     -0.61767835
P   0.94           H   20.... | Blobrana | 0 |  |  | 
		
			
			
				
				
					|   |  | Asteroid 2014 MP
					
					
					
					
						
					
					
						
							(Preview) 
						
							
								The 19 - 42 metre wide asteroid 2014 MP will make a close pass (9.1 lunar distances, 0.0233 AU), travelling at 5.03 km/second, to the Earth-Moon system on the 22nd June 2014 @ 05:40 UT ±00:01.  See more The Lunar Distance (LD), the distance between Earth and the Moon, equals 384,401 km, (or 0.00256 AU).... | Blobrana | 0 |  |  | 
		
			
			
				
				
					|   |  | Asteroid 2014 MX
					
					
					
					
						
					
					
						
							(Preview) 
						
							
								The 41 - 91 metre wide asteroid 2014 MX will make a close pass (16.3 lunar distances, 0.0418 AU), travelling at 4.99 km/second, to the Earth-Moon system on the 20th June 2014 @ 22:44 UT ±00:09.  See more The Lunar Distance (LD), the distance between Earth and the Moon, equals 384,401 km, (or 0.00256 AU)... | Blobrana | 0 |  |  | 
		
			
			
				
				
					|   |  | Asteroid 2014 HN178
					
					
					
					
						
					
					
						
							(Preview) 
						
							
								The 53 - 120 metre wide asteroid 2014 HN178 will make a close pass (17.3 lunar distances, 0.0445 AU), travelling at 6.81 km/second, to the Earth-Moon system on the 16th June 2014 @ 08:03 UT ±00:01.  See more The Lunar Distance (LD), the distance between Earth and the Moon, equals 384,401 km, (or 0.0025...  | Blobrana | 0 |  |  | 
		
			
			
				
				
					|   |  | Asteroid 2007 FY20
					
					
					
					
						
					
					
						
							(Preview) 
						
							
								The 29 - 65 metre wide asteroid 2007 FY20 will make a close pass (52.4 lunar distances, 0.1347 AU), travelling at 7.65 km/second, to the Earth-Moon system on the 16th June 2014 @ 16:49 UT ±00:01.  See more The Lunar Distance (LD), the distance between Earth and the Moon, equals 384,401 km, (or 0.00256 A... | Blobrana | 0 |  |  | 
		
			
			
				
				
					|   |  | Asteroid  2014 HQ124
					
					
					
					
						
					
					
						
							(Preview) 
						
							
								Orbital elements:
2014 HQ124                                          PHA, Earth MOID = 0.0083 AU
Epoch 2014 May 23.0 TT = JDT 2456800.5                  MPC
M 214.20493              (2000.0)            P               Q
n   1.25506990     Peri.  144.67102     +0.68168021     -0.59623853
a   0.8511853      Node   257.79803     +0.53078540     +0.80190199
e   0.2574648      Incl.   25.71171     +0.50356623     -0.03811587
P   0.79... | Blobrana | 3 |  |  | 
		
			
			
				
				
					|   |  | Asteroid 2014 KS40
					
					
					
					
						
					
					
						
							(Preview) 
						
							
								The 100 - 230 metre wide asteroid 2014 KS40 will make a close pass (19.1 lunar distances, 0.0491 AU), travelling at 6.80 km/second, to the Earth-Moon system on the 12th June 2014 @ 15:45 UT ±00:01.  See more The Lunar Distance (LD), the distance between Earth and the Moon, equals 384,401 km, (or 0.0025...  | Blobrana | 0 |  |  | 
		
			
			
				
				
					|   |  | Asteroid 2014 KA46
					
					
					
					
						
					
					
						
							(Preview) 
						
							
								The 36 - 81 metre wide asteroid 2014 KA46 will make a close pass (26.1 lunar distances, 0.0670 AU), travelling at 8.51 km/second, to the Earth-Moon system on the 12th June 2014 @ 03:25 UT ±00:01.  See more The Lunar Distance (LD), the distance between Earth and the Moon, equals 384,401 km, (or 0.00256 A... | Blobrana | 0 |  |  | 
		
			
			
				
				
					|   |  | Asteroid 2014 HS184
					
					
					
					
						
					
					
						
							(Preview) 
						
							
								The 59 - 130 metre wide asteroid 2014 HS184 will make a close pass (18.1 lunar distances, 0.0464 AU), travelling at 7.22 km/second, to the Earth-Moon system on the 11th June 2014 @ 03:57 UT ±00:01.  See more The Lunar Distance (LD), the distance between Earth and the Moon, equals 384,401 km, (or 0.0025...  | Blobrana | 0 |  |  |